User: anonymous   Login
Location: Unspecified
(0.0000°N, 0.0000°E)
Time: 17:28:30
(UTC+00:00)
Language:

Okean 3 - Orbit

View from above orbital plane
View from above orbital plane
View from above satellite
View from above satellite

Ground track
Ground track

The orbit data is extracted from the following two-line orbital elements,

1 21397U 91039A   18019.19782537  .00000241  00000-0  20831-4 0  9990
2 21397  82.5233 293.2025 0016593 232.2148 127.7570 14.92614940442005
Epoch (UTC): 19 January 2018 04:44:52
Eccentricity: 0.0016593
inclination: 82.5233°
perigee height: 578 km
apogee height: 601 km
right ascension of ascending node: 293.2025°
argument of perigee: 232.2148°
revolutions per day: 14.92614940
mean anomaly at epoch: 127.7570°
orbit number at epoch: 44200

The dashed part of the orbit path shows where the satellite is in the earth's shadow,  

DLR